This is the latest recevied weather packets stored in our database for station/object p43g-13. If no packets are shown the sender has not sent any weather packets the latest 10 day(s).
| Time | Temp. | Humidity | Pressure | Rain* | Wind** | Luminosity | Snow |
|---|---|---|---|---|---|---|---|
| 1788120055 | 31.11° C | 74% | 1009.7 hPa | 0 mm | - | 569 W/m² | - |
| 1788119755 | 31.11° C | 76% | 1010 hPa | 0 mm | - | 557 W/m² | - |
| 1788119455 | 31.11° C | 75% | 1009.9 hPa | 0 mm | - | 241 W/m² | - |
| 1788119155 | 30.56° C | 76% | 1010.2 hPa | 0 mm | - | 619 W/m² | - |
| 1788118855 | 31.11° C | 75% | 1010 hPa | 0 mm | - | 577 W/m² | - |
| 1788118555 | 31.67° C | 75% | 1010 hPa | 0 mm | - | 416 W/m² | - |
| 1788118256 | 31.67° C | 74% | 1010.2 hPa | 0 mm | - | 273 W/m² | - |
| 1788117955 | 31.67° C | 75% | 1010.3 hPa | 0 mm | - | 194 W/m² | - |
| 1788117656 | 31.67° C | 76% | 1010.5 hPa | 0 mm | - | 320 W/m² | - |
| 1788117355 | 31.67° C | 75% | 1010.6 hPa | 0 mm | - | 209 W/m² | - |
| 1788117055 | 31.11° C | 76% | 1010.4 hPa | 0 mm | - | 628 W/m² | - |
| 1788116755 | 31.11° C | 76% | 1010.5 hPa | 0 mm | - | 830 W/m² | - |
| 1788116455 | 31.11° C | 76% | 1010.4 hPa | 0 mm | - | 690 W/m² | - |
| 1788116156 | 31.67° C | 75% | 1010.6 hPa | 0 mm | - | 500 W/m² | - |
| 1788115855 | 31.11° C | 75% | 1010.7 hPa | 0 mm | - | 959 W/m² | - |
| 1788115555 | 31.11° C | 75% | 1010.8 hPa | 0 mm | - | 248 W/m² | - |
| 1788115255 | 31.11° C | 76% | 1010.7 hPa | 0 mm | - | 717 W/m² | - |
| 1788114956 | 31.67° C | 75% | 1010.6 hPa | 0 mm | - | 501 W/m² | - |
| 1788114654 | 31.67° C | 74% | 1010.9 hPa | 0 mm | - | 782 W/m² | - |
| 1788114355 | 31.11° C | 75% | 1010.8 hPa | 0 mm | - | 249 W/m² | - |
| 1788114055 | 31.11° C | 76% | 1010.5 hPa | 0 mm | - | 239 W/m² | - |
| 1788113754 | 31.11° C | 76% | 1011 hPa | 0 mm | - | 945 W/m² | - |
| 1788113455 | 31.11° C | 75% | 1011 hPa | 0 mm | - | 942 W/m² | - |
| 1788113156 | 31.67° C | 73% | 1010.9 hPa | 0 mm | - | 244 W/m² | - |
| 1788112855 | 31.67° C | 75% | 1010.8 hPa | 0 mm | - | 375 W/m² | - |
* Rain latest hour (hover to see other rain measurements)
** Current wind speed in m/s (hover to see current wind gust speed)